Regional Weather Roundup
Issued by NWS

Home | Current Version | Previous Version | Text Only | Print | Product List | Glossary On
Versions: 1 2 3 4 5 6 7 8 9 10 11 12 13 14 15 16 17 18 19 20 21 22 23 24 25 26 27 28 29 30 31 32 33 34 35 36 37 38 39 40 41 42 43 44 45 46 47 48 49 50
950
ASUS44 KLIX 171510
RWRLA
LOUISIANA WEATHER ROUNDUP
NATIONAL WEATHER SERVICE NEW ORLEANS LA
900 AM CST WED DEC 17 2014

NOTE: "FAIR" INDICATES FEW OR NO CLOUDS BELOW 12,000 FEET WITH NO
      SIGNIFICANT WEATHER AND/OR OBSTRUCTIONS TO VISIBILITY.
      SKY/WX - SKY CONDITION AND SIGNIFICANT WEATHER.
      TMP - AIR TEMPERATURE.    DP   - DEWPOINT TEMPERATURE.
      RH  - RELATIVE HUMIDITY.  PRES - PRESSURE.
      HX  - HEAT INDEX.         WCI  - WIND CHILL INDEX.

*  THESE STATIONS ARE NOT NWS OR FAA STATIONS AND ARE NOT UNDER
   NWS QUALITY CONTROL.

LAZ040-048-061>063-065-066-069-171600-
SOUTHEAST LOUISIANA

CITY           SKY/WX    TMP DP  RH WIND       PRES   REMARKS
N.O. AUDUBON     N/A     53  42  67 MISG        N/A
N.O. INTL ARPT PTSUNNY   52  38  58 E9        30.30R
N.O. LAKEFRONT MOSUNNY   52  40  63 E12       30.30R
N.O. DOWNTOWN* FAIR      50  37  62 NE3       30.29S
SLIDELL        SUNNY     47  39  74 CALM      30.30R
BATON ROUGE    MOSUNNY   44  39  82 E5        30.31R
BOOTHVILLE     SUNNY     57  47  69 NE6       30.29R
BELLE CHASSE   PTSUNNY   53  44  71 NE6       30.28S
BOGALUSA*        N/A     45  39  79 NE5       30.32R
GALLIANO*      MOSUNNY   56  46  68 MISG      30.29R
NEW ROADS*     FAIR      44  39  82 E5        30.31S
GONZALES*      FAIR      48  42  80 MISG      30.29S
HAMMOND*       NOT AVBL
HOUMA*         SUNNY     46  41  81 NE6       30.28S
PORT FOURCHON* SUNNY     55  46  71 NE9       30.31S

$$

LAZ041-044-053-054-171600-
SOUTHWEST LOUISIANA

CITY           SKY/WX    TMP DP  RH WIND       PRES   REMARKS
LAKE CHARLES   CLOUDY    46  40  79 E8        30.28S
LAFAYETTE      PTSUNNY   47  39  74 VRB3      30.30R
PATTERSON      PTSUNNY   48  43  81 E7        30.30R
SALT POINT       N/A     53  43  68 VRB3      30.27S
NEW IBERIA     PTSUNNY   49  40  71 E9        30.29S
CHENAULT AIRPK PTSUNNY   43  37  81 E3        30.29S

$$

LAZ027-028-171600-
CENTRAL LOUISIANA

CITY           SKY/WX    TMP DP  RH WIND       PRES   REMARKS
FORT POLK      PTSUNNY   43  38  82 E5        30.29R
ALEXANDRIA INT PTSUNNY   41  38  89 NE7       30.30R
ALEXANDRIA     MOSUNNY   42  37  82 NE5       30.31R

$$

LAZ001-002-171600-
NORTHWEST LOUISIANA

CITY           SKY/WX    TMP DP  RH WIND       PRES   REMARKS
SHREVEPORT     CLOUDY    40  34  79 E6        30.32R
BARKSDALE AFB  NOT AVBL
DTN SHREVEPORT CLOUDY    38  32  79 NE6       30.33R WCI  33

$$

LAZ014-016-171600-
NORTHEAST LOUISIANA

CITY           SKY/WX    TMP DP  RH WIND       PRES   REMARKS
MONROE         MOSUNNY   39  35  86 NE7       30.35R WCI  34
TALLULAH       MOSUNNY   40  35  83 N8        30.35R WCI  34

$$




USA.gov is the U.S. government's official web portal to all federal, state and local government web resources and services.